Vertical_Velocity
-2 -5 -1 -3 -3 -3 -1 -3 -3 -0 -2 -1 -1 -5 2 3 2 1 10 -1 1 2 2 4 1 -0 3 1 1 1 1 -1 -1 -4 -3 -1 2 2 0 -1 -0 0 1 0 -0 -1 -3 -2 -2 -3 -2 -1 -4 -6
-2 -6 -2 -0 -2 -3 -2 -1 -3 -3 -2 -4 -4 -4 -2 -3 0 1 -1 4 -1 0 1 1 -1 2 2 0 1 1 3 -0 -5 -1 -2 -1 -1 -0 0 0 1 0 1 -2 -3 -2 0 2 0 1 -2 -2 -2 0
-3 -5 -2 -0 -0 -3 -5 -1 -4 -6 1 -3 -4 -2 -5 -2 -2 -2 -5 -1 0 -0 0 0 0 3 0 -1 0 1 1 1 -0 3 1 -3 -0 -2 -1 -1 1 1 1 -1 1 3 -0 -1 -2 2 2 1 -1 0
-2 -3 -1 -1 -3 0 -2 -4 -1 -4 2 -4 -2 -4 -3 -4 -1 -4 -1 5 4 0 -2 -1 0 -1 -0 -2 0 1 2 3 4 3 1 3 0 -2 -0 -1 -1 -0 0 1 -2 1 0 0 -2 -1 -0 1 2 2
-3 -2 -3 -1 -2 0 -2 -3 -2 2 1 1 -4 -2 -4 -2 -2 -1 3 0 -2 1 1 -1 -2 -1 -2 -1 1 -1 -1 1 0 -0 -1 -1 -1 -2 1 -2 4 -3 -2 -2 3 1 -1 1 2 1 2 1 0 0
-3 -3 -3 -0 -1 -1 1 -4 -3 -3 1 3 -2 -2 -3 -3 0 -3 -1 -2 -1 1 2 2 1 -2 -3 -1 1 -0 4 3 0 0 -1 3 3 -5 -5 0 0 -2 -1 0 -0 1 1 1 2 1 2 0 0 1
-2 -4 -1 -2 -1 -1 1 -4 -2 -2 0 0 -2 -4 -4 -4 -2 -12 -0 11 3 -2 -2 -0 -1 1 -2 -1 1 4 1 -0 -1 1 -0 -0 4 -2 3 2 -5 -4 1 1 -2 0 -2 2 -0 1 1 0 2 2
-3 -5 -2 -1 -4 -1 1 -1 -5 -5 1 0 0 -2 -3 -4 4 3 1 2 -1 -0 2 -2 -2 -1 -3 -2 -1 1 0 0 -1 -1 -1 3 3 0 2 -3 3 -0 -2 1 2 3 1 1 3 2 1 1 0 1
-2 -4 -4 -2 -3 -2 0 1 -2 -4 -0 5 1 -0 1 6 6 1 2 -0 -1 -4 -3 2 3 0 -2 0 -0 1 -1 -1 0 -1 1 3 2 1 -1 -0 2 3 1 -1 0 0 1 0 0 -0 0 0 -0 1
-3 -2 -3 -4 -5 -1 0 0 2 -1 0 2 5 5 2 -2 9 7 -1 -1 -2 -4 -2 -4 -2 -3 -3 -0 -0 1 -1 -1 -0 1 1 1 4 0 2 2 -2 -2 0 -0 -1 -1 -2 -2 -1 -1 -1 1 1 0
-4 -4 -1 -2 -6 -3 -0 -0 1 1 0 3 2 -2 6 6 7 4 -1 -5 -5 -4 -1 4 1 -1 2 0 0 -0 3 -0 -0 -1 -3 1 1 -3 -3 -2 -1 -2 -1 -0 0 2 2 2 2 1 -1 -1 0 2
-3 -7 -2 0 -4 -4 -1 -2 1 -1 -2 1 5 11 9 7 3 -3 -9 -7 -8 1 0 5 2 -2 1 -0 -3 -1 -1 0 -0 -1 -1 -3 -2 -1 2 -0 -0 -2 -0 0 1 1 1 1 1 1 3 2 1 3
-3 -6 -2 1 -3 -3 -1 -5 -0 -3 -4 2 7 8 12 2 10 -11 -23 -15 -10 4 12 12 4 0 -1 3 2 -0 -2 1 -2 -2 2 -4 1 -1 -1 -0 1 -0 -0 -0 0 1 1 1 2 1 -0 1 1 1
-4 -5 -5 1 -2 -3 -5 -3 -0 -3 -2 -1 4 5 5 -2 5 -21 -14 0 4 19 9 2 -2 -5 1 1 -2 -0 -1 -1 0 6 -4 -0 -2 3 1 -0 2 -0 -2 -0 1 1 1 0 -1 1 2 2 1 1
-4 -5 -5 -2 -3 -4 -3 -5 -4 0 -1 -2 4 0 5 -7 -12 -4 0 15 12 -0 5 3 0 -0 -0 -8 -6 -4 -2 -3 4 1 -1 2 -1 1 1 2 1 -0 -1 -1 0 1 -1 0 1 1 2 1 0 0
-2 -2 -4 -3 -2 -4 -6 -4 -5 -4 -2 -2 1 3 -2 -3 -7 -1 6 11 8 4 -0 -4 -2 -3 -3 -8 -0 -3 -0 4 4 -3 -4 -2 -1 0 1 1 0 0 1 3 2 0 -0 1 0 1 1 0 0 1
-5 1 -3 -3 0 -4 -5 -4 -5 -4 -2 -1 -4 2 2 -1 1 2 5 10 7 -4 -4 1 -4 0 0 -7 -0 -3 11 7 -12 -3 -1 0 -0 -0 -2 -0 1 1 0 0 1 1 1 1 1 1 1 1 1 0
-3 -1 -2 -3 1 1 -3 -6 0 -4 -3 -2 -8 -2 4 -1 -1 -1 4 6 -1 -2 1 -5 -3 -7 -6 -2 9 18 3 -12 -7 -2 -2 -1 -1 0 1 -0 -1 -1 -0 -0 -1 0 1 0 0 2 2 1 2 1
-2 -1 -2 -4 0 -2 -6 -2 -2 2 -1 -3 -1 -3 -6 -4 -2 0 1 2 2 2 -3 -3 -11 -8 -1 9 6 3 -4 -7 -4 -3 -3 -2 -1 -2 -1 -1 -1 0 0 1 2 2 1 1 1 1 1 2 1 0
-1 0 -1 -2 -2 -1 -3 -1 -2 -4 0 3 2 0 2 -1 -1 2 3 0 2 2 -4 -16 -3 8 7 4 1 -3 -5 -3 -2 -1 -2 -1 -1 -1 -2 -1 -0 -0 -1 0 1 1 1 1 1 2 2 1 0 -0
-4 -2 -2 -1 -2 -3 -6 -5 -3 -3 -3 -5 0 0 0 4 3 3 3 4 10 5 -16 -3 4 8 3 2 2 -1 -3 -3 -4 -1 -0 -1 -1 0 -2 -2 -1 1 -0 0 -1 -1 1 2 2 0 0 0 0 1
-3 -3 -2 -4 -4 -2 -0 -2 -6 -3 -0 -4 -4 -0 0 5 4 6 12 2 8 2 -12 -4 5 4 2 1 -0 -1 1 -3 -3 -4 -2 0 0 0 1 2 2 1 -0 0 -0 0 0 -0 -0 0 0 1 1 0
-1 -3 -1 -2 -5 -1 -2 -6 -4 -1 -5 -2 -3 -2 -1 1 2 6 1 5 7 11 -2 1 5 -2 -2 -1 0 -1 -2 -1 -2 -2 -0 0 1 1 2 2 1 0 0 0 1 2 3 1 1 1 0 0 1 1
-2 -1 -3 -3 1 -4 -3 -4 -6 -4 -1 -3 -2 -2 -2 -1 1 -0 -1 7 5 7 10 1 1 1 3 3 2 1 -0 -1 -2 -3 1 2 1 3 3 0 0 0 0 -0 2 1 1 2 1 0 2 3 1 -4
-5 -3 -5 -4 -3 -4 -1 -2 -3 -5 -3 -2 -0 -1 -1 -1 -2 -1 0 2 8 8 3 10 4 1 0 2 -0 -1 -3 -1 0 1 1 2 1 0 -1 0 2 2 2 1 3 2 1 1 2 2 4 2 -3 0
-4 -4 -2 -0 -4 -3 -1 -3 -2 -2 -2 -1 -1 0 -2 -2 0 0 5 1 5 6 10 8 4 2 1 -0 1 1 -2 -3 -2 -3 -0 5 4 2 2 0 2 1 2 3 1 2 1 -2 0 4 -1 0 0 -1
0 -5 -2 -2 -5 -5 -1 1 -3 -5 -2 -1 -0 -0 -2 -2 -1 2 1 1 1 1 3 9 9 -1 5 6 7 -0 -0 -0 1 0 1 3 9 6 3 4 6 2 0 4 3 1 6 10 0 0 -1 0 0 0
-3 -2 -2 -2 -2 -2 -2 -3 -3 -3 0 -1 -1 -2 -1 -2 1 -0 -1 0 1 0 -2 -6 3 -3 -0 8 6 -0 -7 -3 -1 -2 -3 2 5 10 6 0 3 7 6 0 7 12 1 1 0 -1 -0 1 1 1
-4 0 -1 -4 -3 -1 -1 -2 -2 -1 -2 -3 -2 -2 -1 -2 -1 -1 2 -1 1 -3 3 3 -5 -2 -5 -3 8 6 1 -0 1 3 2 3 6 9 14 14 11 6 10 10 2 2 1 -0 -1 0 1 0 -0 -1
-1 -3 -3 -3 -2 -2 -2 -2 1 -1 -2 -2 -2 -2 -2 -2 -0 -1 1 1 1 0 1 2 1 4 10 11 8 8 8 6 5 6 5 6 6 4 2 3 6 2 1 2 1 0 0 -0 -0 -0 -0 -1 -2 -2
-1 -3 -4 -1 -1 -4 -3 -0 -1 -2 -3 -2 -2 -2 -2 -1 -1 -0 2 2 1 1 3 3 4 5 5 9 8 10 6 5 1 -1 1 1 1 1 2 3 4 4 4 5 3 3 2 0 -1 -1 -2 -3 -3 -1
-3 -2 -2 -2 -1 -2 -3 -2 -1 -1 -3 -2 -2 -3 -2 -1 -1 0 2 4 3 2 4 6 5 8 8 6 8 8 7 9 12 12 11 8 8 7 6 6 6 4 3 2 1 1 1 0 -0 -1 -2 -3 -2 -4
-1 -1 -2 -2 -1 -2 -3 -2 -1 -0 -4 -2 -2 -3 -3 -2 -1 -0 3 5 5 5 4 5 5 5 7 9 9 9 7 6 6 6 5 5 5 5 5 4 3 3 2 1 0 -0 -1 -2 -2 -2 -3 -4 -4 -3
Height
5542 5531 5520 5506 5492 5477 5463 5454 5450 5451 5456 5462 5467 5473 5479 5485 5491 5496 5501 5507 5512 5517 5523 5526 5531 5535 5540 5542 5544 5546 5549 5550 5550 5552 5558 5561 5564 5565 5570 5572 5574 5576 5579 5581 5581 5582 5585 5585 5586 5589 5591 5593 5596 5599
5537 5526 5516 5504 5489 5474 5460 5451 5445 5447 5450 5459 5465 5470 5478 5483 5488 5494 5500 5506 5511 5516 5521 5523 5528 5534 5537 5539 5541 5543 5544 5545 5546 5549 5555 5560 5563 5565 5566 5569 5572 5575 5578 5580 5581 5582 5583 5585 5587 5589 5591 5594 5595 5597
5533 5522 5511 5500 5486 5470 5458 5449 5443 5441 5445 5454 5460 5467 5475 5481 5487 5493 5499 5504 5509 5513 5518 5522 5527 5532 5534 5536 5538 5541 5542 5543 5544 5547 5550 5556 5560 5564 5565 5567 5570 5572 5575 5578 5579 5582 5583 5585 5586 5588 5590 5592 5594 5596
5529 5518 5507 5496 5482 5466 5452 5444 5438 5434 5438 5446 5455 5463 5470 5478 5486 5491 5497 5503 5508 5512 5516 5521 5524 5529 5532 5534 5536 5538 5539 5540 5541 5545 5548 5553 5557 5561 5563 5565 5569 5571 5572 5574 5577 5579 5581 5583 5585 5587 5589 5591 5592 5594
5524 5513 5502 5490 5477 5461 5445 5434 5427 5426 5429 5436 5447 5456 5465 5474 5482 5489 5495 5500 5505 5511 5514 5518 5522 5527 5530 5532 5533 5535 5536 5538 5539 5542 5546 5551 5555 5557 5559 5563 5567 5569 5570 5572 5574 5577 5579 5582 5584 5587 5589 5590 5591 5592
5520 5507 5497 5485 5471 5455 5439 5426 5417 5416 5416 5424 5436 5448 5459 5469 5478 5485 5492 5497 5501 5506 5511 5516 5521 5524 5527 5530 5531 5532 5533 5535 5537 5540 5544 5548 5551 5553 5557 5561 5564 5566 5569 5570 5573 5575 5578 5580 5582 5584 5587 5588 5589 5590
5515 5503 5493 5480 5466 5450 5433 5421 5413 5409 5408 5413 5424 5439 5452 5464 5474 5484 5492 5497 5500 5503 5508 5514 5518 5522 5525 5528 5529 5530 5531 5533 5535 5539 5543 5546 5548 5550 5554 5557 5557 5560 5565 5568 5570 5573 5575 5577 5578 5581 5583 5584 5586 5588
5510 5498 5488 5476 5461 5447 5430 5415 5406 5400 5399 5404 5417 5434 5448 5462 5473 5481 5487 5492 5495 5499 5506 5511 5517 5521 5523 5525 5527 5529 5529 5531 5534 5537 5541 5543 5545 5548 5550 5552 5554 5557 5559 5562 5564 5567 5568 5570 5574 5578 5580 5582 5583 5585
5506 5495 5485 5473 5459 5443 5427 5411 5401 5393 5391 5397 5413 5430 5446 5458 5468 5475 5483 5488 5491 5497 5500 5508 5514 5518 5520 5523 5524 5527 5528 5529 5532 5535 5538 5542 5544 5547 5549 5551 5554 5556 5557 5559 5561 5564 5566 5568 5571 5574 5577 5578 5580 5583
5502 5491 5481 5470 5457 5442 5425 5410 5399 5392 5390 5396 5411 5428 5441 5454 5465 5471 5479 5484 5487 5490 5498 5504 5510 5514 5518 5520 5523 5525 5526 5528 5530 5534 5537 5540 5543 5545 5547 5550 5552 5554 5555 5557 5559 5562 5564 5567 5569 5571 5574 5576 5578 5580
5498 5489 5478 5468 5455 5442 5425 5409 5397 5391 5391 5398 5411 5426 5441 5451 5460 5468 5474 5480 5483 5488 5496 5502 5505 5509 5514 5517 5520 5523 5525 5526 5529 5532 5535 5538 5540 5542 5545 5547 5550 5552 5554 5556 5558 5561 5563 5566 5568 5569 5571 5574 5575 5576
5494 5485 5477 5468 5455 5442 5426 5410 5399 5393 5395 5401 5415 5429 5439 5448 5456 5463 5468 5475 5480 5488 5495 5500 5502 5504 5509 5513 5516 5520 5522 5525 5527 5530 5532 5534 5536 5539 5541 5544 5547 5549 5552 5555 5557 5559 5561 5563 5565 5567 5568 5569 5570 5570
5490 5482 5474 5466 5456 5443 5429 5415 5404 5399 5401 5407 5416 5427 5436 5444 5454 5458 5466 5475 5481 5488 5494 5496 5498 5500 5505 5509 5513 5516 5518 5522 5524 5527 5529 5531 5531 5535 5538 5541 5544 5547 5550 5552 5554 5556 5558 5559 5561 5562 5563 5564 5564 5564
5485 5478 5471 5464 5456 5445 5432 5419 5411 5405 5408 5413 5419 5426 5434 5442 5447 5456 5466 5471 5475 5481 5486 5488 5491 5495 5499 5503 5507 5511 5515 5518 5521 5524 5524 5525 5527 5532 5535 5537 5540 5543 5545 5548 5550 5552 5554 5555 5556 5557 5558 5558 5558 5558
5478 5473 5467 5461 5453 5446 5436 5423 5415 5411 5411 5416 5422 5427 5433 5438 5447 5455 5461 5465 5470 5477 5482 5485 5487 5490 5493 5496 5500 5504 5509 5513 5518 5519 5521 5521 5523 5525 5529 5532 5534 5537 5540 5542 5544 5546 5547 5549 5550 5551 5551 5552 5552 5551
5473 5468 5463 5458 5451 5445 5438 5427 5418 5414 5414 5418 5424 5427 5430 5437 5443 5449 5454 5460 5466 5472 5477 5479 5482 5484 5487 5489 5494 5498 5503 5510 5513 5512 5515 5517 5519 5521 5523 5526 5529 5532 5534 5536 5538 5539 5541 5543 5543 5544 5544 5544 5544 5544
5467 5463 5458 5454 5448 5442 5438 5430 5421 5415 5415 5417 5423 5426 5428 5433 5438 5444 5448 5453 5459 5465 5470 5473 5476 5480 5483 5484 5490 5494 5501 5505 5503 5506 5508 5510 5513 5516 5518 5521 5524 5526 5527 5529 5531 5532 5534 5535 5536 5536 5537 5537 5538 5537
5460 5455 5451 5449 5445 5440 5435 5430 5423 5416 5413 5416 5418 5423 5424 5428 5433 5437 5442 5447 5452 5458 5462 5465 5470 5473 5477 5480 5486 5490 5491 5493 5495 5498 5500 5504 5506 5509 5512 5514 5517 5519 5521 5523 5524 5525 5527 5528 5528 5529 5530 5530 5530 5530
5453 5448 5443 5441 5439 5435 5431 5428 5423 5417 5413 5411 5413 5417 5420 5424 5427 5431 5435 5440 5445 5449 5452 5457 5461 5468 5471 5473 5475 5478 5481 5484 5487 5490 5492 5496 5500 5503 5505 5507 5510 5512 5514 5516 5517 5518 5519 5520 5521 5522 5523 5523 5522 5522
5444 5441 5437 5434 5431 5428 5425 5421 5416 5412 5410 5408 5405 5407 5411 5415 5419 5422 5426 5431 5435 5438 5442 5448 5456 5459 5462 5463 5466 5468 5471 5475 5479 5481 5485 5489 5492 5496 5498 5500 5502 5504 5506 5508 5510 5511 5512 5513 5514 5515 5515 5515 5515 5515
5435 5432 5428 5425 5422 5418 5415 5412 5408 5404 5401 5398 5395 5394 5398 5402 5405 5410 5415 5419 5423 5426 5432 5441 5446 5449 5452 5454 5457 5460 5463 5467 5470 5474 5478 5481 5483 5486 5488 5492 5494 5497 5499 5500 5502 5503 5504 5506 5507 5508 5508 5509 5509 5509
5425 5422 5419 5415 5413 5410 5407 5403 5398 5392 5389 5385 5382 5379 5380 5385 5390 5395 5400 5404 5408 5413 5420 5428 5433 5437 5441 5444 5448 5452 5455 5458 5462 5466 5469 5472 5475 5477 5480 5484 5487 5489 5491 5493 5494 5495 5497 5499 5500 5501 5501 5502 5502 5501
5415 5412 5409 5406 5404 5400 5398 5392 5386 5380 5374 5371 5368 5365 5365 5365 5369 5375 5380 5388 5394 5401 5407 5414 5419 5424 5429 5433 5438 5442 5446 5450 5453 5456 5459 5462 5465 5468 5472 5475 5478 5480 5483 5485 5487 5488 5490 5491 5492 5493 5493 5494 5494 5493
5405 5402 5399 5397 5394 5389 5385 5379 5372 5366 5361 5356 5353 5351 5350 5349 5351 5354 5362 5371 5379 5386 5392 5398 5405 5410 5417 5422 5427 5432 5436 5440 5443 5447 5450 5453 5456 5459 5463 5466 5469 5472 5474 5476 5479 5480 5482 5483 5484 5485 5486 5485 5484 5483
5395 5392 5390 5386 5382 5377 5372 5366 5359 5353 5348 5344 5341 5338 5337 5336 5336 5339 5345 5355 5362 5369 5377 5383 5390 5396 5403 5408 5415 5420 5425 5431 5434 5438 5441 5445 5448 5451 5454 5457 5460 5463 5466 5468 5470 5472 5473 5474 5476 5476 5476 5475 5474 5474
5383 5381 5379 5376 5371 5366 5359 5352 5346 5341 5336 5332 5330 5328 5326 5325 5325 5328 5334 5337 5345 5351 5359 5367 5375 5382 5389 5396 5402 5407 5413 5419 5425 5429 5432 5436 5440 5443 5446 5450 5453 5455 5458 5459 5461 5463 5464 5466 5467 5466 5464 5464 5464 5464
5375 5371 5369 5364 5358 5353 5347 5340 5333 5329 5325 5322 5320 5318 5317 5316 5315 5319 5322 5325 5331 5337 5343 5351 5361 5370 5377 5383 5389 5395 5401 5407 5413 5418 5422 5426 5429 5432 5436 5440 5443 5445 5447 5449 5451 5452 5455 5456 5454 5454 5454 5453 5454 5454
5364 5362 5358 5353 5347 5341 5335 5328 5323 5319 5315 5313 5312 5310 5309 5307 5307 5308 5311 5316 5320 5326 5333 5341 5349 5357 5365 5371 5377 5383 5389 5395 5401 5406 5411 5415 5419 5422 5424 5427 5431 5434 5436 5438 5440 5441 5442 5443 5443 5443 5443 5444 5445 5445
5355 5351 5347 5341 5335 5329 5323 5317 5313 5309 5307 5306 5305 5303 5301 5298 5298 5298 5302 5307 5312 5316 5322 5330 5339 5347 5354 5362 5368 5372 5378 5383 5390 5395 5399 5404 5408 5412 5414 5417 5419 5422 5425 5427 5428 5430 5431 5432 5433 5434 5434 5435 5435 5434
5344 5340 5335 5329 5323 5318 5313 5308 5305 5302 5301 5300 5298 5296 5292 5290 5290 5291 5294 5300 5305 5309 5314 5321 5329 5336 5343 5350 5357 5362 5367 5372 5377 5383 5387 5391 5395 5399 5402 5405 5408 5411 5413 5415 5418 5419 5421 5422 5423 5424 5425 5425 5425 5425
5332 5327 5322 5317 5312 5307 5303 5300 5297 5296 5296 5295 5293 5290 5286 5284 5284 5286 5290 5294 5299 5304 5308 5313 5320 5326 5332 5339 5345 5351 5356 5361 5365 5370 5374 5379 5383 5387 5391 5394 5398 5401 5403 5405 5407 5410 5411 5413 5414 5415 5415 5415 5415 5414
5320 5316 5311 5306 5302 5299 5296 5292 5291 5291 5291 5290 5289 5285 5282 5281 5281 5284 5288 5292 5296 5300 5304 5308 5312 5318 5324 5329 5335 5341 5347 5352 5357 5362 5366 5370 5374 5378 5381 5385 5388 5391 5393 5396 5398 5400 5401 5403 5404 5405 5405 5405 5404 5403
5308 5304 5300 5297 5293 5290 5288 5287 5287 5287 5287 5286 5285 5283 5281 5280 5280 5283 5287 5290 5294 5298 5301 5305 5309 5313 5318 5323 5327 5333 5338 5343 5348 5353 5357 5361 5364 5368 5372 5375 5378 5381 5384 5386 5389 5390 5392 5394 5394 5395 5395 5394 5393 5392